Regional Weather Roundup
Issued by NWS

Home | Current Version | Previous Version | Text Only | Print | Product List | Glossary Off
Versions: 1 2 3 4 5 6 7 8 9 10 11 12 13 14 15 16 17 18 19 20 21 22 23 24 25 26 27

000
ASUS45 KPSR 182210
RWRAZ

ARIZONA HOURLY REGIONAL WEATHER ROUNDUP
NATIONAL WEATHER SERVICE PHOENIX AZ
300 PM MST SAT FEB 18 2017

NOTE: FAIR INDICATES FEW OR NO CLOUDS BELOW 12,000 FEET WITH NO
SIGNIFICANT WEATHER AND/OR OBSTRUCTIONS TO VISIBILITY.

AZZ001>003-036-182300-
NORTHWEST ARIZONA

CITY           SKY/WX    TMP DP  RH WIND       PRES   REMARKS
BULLHEAD CITY  CLOUDY    61  52  72 S8        29.51S
KINGMAN        CLOUDY    54  35  48 SE21      29.54F
$$

AZZ004>008-015-016-018-182300-
NORTH CENTRAL ARIZONA

CITY           SKY/WX    TMP DP  RH WIND       PRES   REMARKS
GRAND CANYON   LGT RAIN  38  36  92 SE10      29.68S FOG     WCI  31
WILLIAMS       CLOUDY    39  36  87 SE16G25   29.65F WCI  30
PRESCOTT       CLOUDY    45  41  86 SE13      29.61F
FLAGSTAFF      LGT SNOW  35  35 100 S5        29.68S FOG     WCI  31
PAYSON         CLOUDY    50  39  66 SE8G14    29.66F
PAGE           LGT RAIN  47  39  74 NW6       29.65F
$$

AZZ009>014-017-182300-
NORTHEAST ARIZONA

CITY           SKY/WX    TMP DP  RH WIND       PRES   REMARKS
WINSLOW        CLOUDY    59  33  37 SE21G30   29.63S
SAINT JOHNS    PTSUNNY   57  29  34 S15G25    29.67S
WINDOW ROCK    PTSUNNY   54  28  36 S8        29.72F
SHOW LOW       PTSUNNY   48  28  46 S23G30    29.68S
$$

AZZ023-182300-
GREATER PHOENIX AREA

CITY           SKY/WX    TMP DP  RH WIND       PRES   REMARKS
PHOENIX        LGT RAIN  58  53  84 SE3       29.54F
BUCKEYE        CLOUDY    57  57 100 E10       29.55R
GLENDALE       LGT RAIN  57  55  94 E7        29.56F
LUKE AFB       LGT RAIN  58  57  96 E10       29.54S
DEER VALLEY    LGT RAIN  58  53  84 S7        29.55R
SCOTTSDALE     LGT RAIN  60  49  66 S10       29.56R
MESA-FALCON    CLOUDY   N/A N/A N/A S12       29.53S
MESA-GATEWAY   LGT RAIN  57  54  88 SW13      29.57R
CHANDLER       CLOUDY    59  52  77 S14       29.57R
$$

AZZ027-028-182300-
SOUTHWEST MARICOPA COUNTY AND PINAL COUNTY

CITY           SKY/WX    TMP DP  RH WIND       PRES   REMARKS
CASA GRANDE    NOT AVBL
GILA BEND      PTSUNNY   63  42  46 SE20      29.52R
$$

AZZ503-504-507>509-182300-
SOUTHEAST ARIZONA

CITY           SKY/WX    TMP DP  RH WIND       PRES   REMARKS
TUCSON         LGT RAIN  53  44  71 S21G29    29.65R
DAVIS-MONTHAN  LGT RAIN  51  46  85 S23G32    29.63R
NOGALES        LGT RAIN  46  41  82 SE8       29.66F
SIERRA VISTA   LGT RAIN  50  39  67 S17G32    29.67R
DOUGLAS        CLOUDY    59  29  31 S23G43    29.64S
SAFFORD        CLOUDY    68  30  24 S10G20    29.59F
$$

AZZ020-021-025-026-031-182300-
SOUTHWEST ARIZONA

CITY           SKY/WX    TMP DP  RH WIND       PRES   REMARKS
YUMA           RAIN      57  53  86 SW13      29.53S
$$

CAZ031-033-041-043-047-048-061-182300-
SOUTHERN CALIFORNIA

CITY           SKY/WX    TMP DP  RH WIND       PRES   REMARKS
DOWNTOWN L.A.  MOSUNNY   61  53  75 CALM      29.56F
L.A. AIRPORT   PTSUNNY   57  55  93 SW7       29.57S
SAN DIEGO      PTSUNNY   60  49  66 S13       29.59R
BURBANK        CLOUDY    58  48  69 VRB5      29.55F
ONTARIO        PTSUNNY   57  47  69 SW9       29.55R
RIVERSIDE      CLOUDY    58  52  80 VRB6      29.56R
PALM SPRINGS   CLOUDY    60  51  72 VRB5      29.54R
EL CENTRO NAS  LGT RAIN  59  51  75 N5        29.54F
IMPERIAL       LGT RAIN  58  52  80 CALM      29.53S
BLYTHE         CLOUDY    57  54  89 W5        29.51F
NEEDLES        CLOUDY    62  51  67 W7        29.51S
$$

NVZ020-UTZ003-182300-
SOUTHERN NEVADA-UTAH

CITY           SKY/WX    TMP DP  RH WIND       PRES   REMARKS
LAS VEGAS      LGT RAIN  54  49  83 E7        29.52S
SALT LAKE CITY CLOUDY    55  34  45 S10G22    29.58F
$$

NMZ009-TXZ055-182300-
NEW MEXICO-WEST TEXAS

CITY           SKY/WX    TMP DP  RH WIND       PRES   REMARKS
ALBUQUERQUE    CLOUDY    57  32  38 SW13      29.74F
EL PASO        CLOUDY    64  32  30 SE8       29.68F
$$


........................KEY........................
SKY/WX - SKY CONDITION/WEATHER
TMP    - TEMPERATURE IN FAHRENHEIT
DP     - DEW POINT IN FAHRENHEIT
RH     - RELATIVE HUMIDITY IN PERCENT
WIND   - DIRECTION AND SPEED IN MILES PER HOUR (MPH)
VRB    - VARIABLE WIND DIRECTION
PRES   - MEAN SEA LEVEL PRESSURE IN INCHES OF MERCURY
         F - FALLING PRESSURE   R - RISING PRESSURE
         S - STEADY PRESSURE
VSB    - VISIBILITY IN MILES
HX     - HEAT INDEX IN FAHRENHEIT
WCI    - WIND CHILL INDEX IN FAHRENHEIT
TC     - TEMPERATURE IN CELSIUS WHICH IS ALSO KNOWN AS
         TEMPERATURE IN CENTIGRADE
AFB    - AIR FORCE BASE
         LUKE AFB IS LUKE AIR FORCE BASE
         DAVIS-MONTHAN IS DAVIS-MONTHAN AIR FORCE BASE
NAS    - NAVAL AIR STATION
         EL CENTRO NAS IS EL CENTRO NAVAL AIR STATION
N/A    - NOT AVAILABLE





USA.gov is the U.S. government's official web portal to all federal, state and local government web resources and services.